Home > Weather > Carrollton > Past weeks

Flag for U.S.A. Weather for the Past 2 Weeks in Carrollton, Texas, U.S.A.

Now
50 °F

Passing clouds.


Feels Like: 43 °F
Forecast: 41 / 55 °F
Wind: 22 mph from Northwest

Location: Dallas Love Field

Current Time: Feb 8, 2016 at 11:25:37 AM

Latest Report: Feb 8, 2016 at 10:53 AM


Visibility: 10 mi

Pressure: 30.36 "Hg

Humidity: 24%

Dew point: 14 °F

Location of CarrolltonLocation

Historic Weather in Carrollton — Graph

°F

Carrollton Temperature Yesterday

Maximum temperature yesterday: 63 °F (at 3:53 PM)
Minimum temperature yesterday: 34 °F (at 5:53 AM)
Average temperature yesterday: 48 °F

High & Low Weather Summary for the Past Weeks

 TemperatureHumidityPressure
High76 °F (Jan 29, 2:53 PM)90% (Feb 6, 6:53 AM)30.51 "Hg (Feb 6, 6:53 AM)
Low32 °F (Jan 27, 7:53 AM)18% (Feb 2, 3:53 PM)29.51 "Hg (Feb 1, 5:53 PM)
Average52 °F52%30.07 "Hg
* Reported Jan 24 9:53 AM — Feb 8 9:53 AM, Carrollton, Weather by CustomWeather, © 2016

Note: Actual official high and low records may vary slightly from our data, if they occured in-between our weather recording intervals... More about our weather records

Advertising

Carrollton Weather History for the Previous 24 Hours

 ConditionsComfort  
Time TempWeatherWind HumidityBarometerVisibility
9:53 AM
Mon, Feb 8
47 °FPassing clouds.20 mph29%30.36 "Hg10 mi
8:53 AM45 °FPassing clouds.17 mph34%30.35 "Hg10 mi
7:53 AM42 °FSunny.14 mph38%30.33 "Hg10 mi
6:53 AM42 °FPassing clouds.12 mph39%30.32 "Hg10 mi
5:53 AM42 °FPassing clouds.13 mph38%30.30 "Hg10 mi
4:53 AM43 °FPassing clouds.15 mph38%30.28 "Hg10 mi
3:53 AM44 °FPassing clouds.9 mph38%30.28 "Hg10 mi
2:53 AM46 °FPassing clouds.14 mph38%30.28 "Hg10 mi
1:53 AM48 °FClear.14 mph39%30.27 "Hg10 mi
12:53 AM49 °FClear.13 mph46%30.27 "Hg10 mi
11:53 PM
Sun, Feb 7
47 °FPassing clouds.9 mph59%30.27 "Hg10 mi
10:53 PM49 °FClear.8 mph52%30.25 "Hg10 mi
9:53 PM49 °FClear.10 mph57%30.21 "Hg10 mi
8:53 PM48 °FClear.No wind63%30.19 "Hg10 mi
7:53 PM52 °FPassing clouds.No wind53%30.16 "Hg10 mi
6:53 PM56 °FPassing clouds.No wind42%30.13 "Hg10 mi
5:53 PM62 °FPassing clouds.3 mph31%30.11 "Hg10 mi
4:53 PM63 °FSunny.3 mph31%30.10 "Hg10 mi
3:53 PM63 °FSunny.3 mph34%30.09 "Hg10 mi
2:53 PM61 °FSunny.5 mph34%30.09 "Hg10 mi
1:53 PM60 °FPassing clouds.8 mph32%30.11 "Hg10 mi
12:53 PM60 °FPassing clouds.10 mph36%30.13 "Hg10 mi
11:53 AM58 °FPassing clouds.15 mph39%30.16 "Hg10 mi
Weather by CustomWeather, © 2016

See weather overviewHow to use our weather pages